Other Public Products
Issued by NWS Grand Forks, ND

Home | Current Version | Previous Version | Graphics & Text | Print | Product List | Glossary On
Versions: 1 2 3 4 5 6 7 8 9 10 11 12 13 14 15 16 17 18 19 20 21 22 23 24 25 26 27 28 29 30 31 32 33 34 35 36 37 38 39 40 41 42 43 44 45 46 47 48 49 50
000
FPUS83 KFGF 042110
OPUFGF
PRAIRIE TO PINES WEATHER ROUNDUP
NATIONAL WEATHER SERVICE EASTERN NORTH DAKOTA/GRAND FORKS ND
300 PM CST SUN DEC 04 2016

 **SATELLITE DATA USED TO AUGMENT SKY COVER AT AUTOMATED STATIONS**
 *****  WEATHER ACROSS EASTERN NORTH DAKOTA  *****

CITY           SKY/WX    TMP DP  RH WIND       PRES   REMARKS
GRAND FORKS    LGT SNOW  32  28  85 W12       29.63F FOG     WCI  23
GRAND FORKS AF CLOUDY    32  27  80 NW10      29.64S WCI  24
GRAND CITY NWS   N/A     32 N/A N/A W15         N/A  WCI  22
BUXTON         NOT AVBL
DEVILS LAKE    CLOUDY    28  25  88 W15       29.64S WCI  16
FARGO          CLOUDY    34  29  82 W10       29.68S
WAHPETON ARPT  CLOUDY    34  30  86 W7        29.71F
$$

 *****  WEATHER ACROSS CENTRAL AND WESTERN NORTH DAKOTA  *****

CITY           SKY/WX    TMP DP  RH WIND       PRES   REMARKS
JAMESTOWN      CLOUDY    35  29  78 W12       29.66F
BISMARCK       SUNNY     33  22  63 SW7       29.70F
MINOT          SUNNY     29  21  72 W7        29.64F WCI  22
MINOT AFB      SUNNY     24  19  81 S1        29.63F
GARRISON         N/A     29  22  75 CALM      29.65F
WILLISTON      SUNNY     32  22  66 S6        29.62F
DICKINSON      SUNNY     29  22  75 SW10      29.63F WCI  20
HETTINGER      SUNNY     36  25  64 SW3       29.68F
$$

 *****  OTHER OBSERVATIONS NORTHEAST NORTH DAKOTA  *****

CITY           SKY/WX    TMP DP  RH WIND       PRES   REMARKS
WALHALLA         N/A     32  32 100 W13G22    29.59S WCI  22
LANGDON        LGT SNOW  30  28  93 W20G25    29.59S WCI  18
CAVALIER       LGT SNOW  32  28  86 W15       29.60S WCI  22
GRAFTON        LGT SNOW  32  32 100 W10       29.63F WCI  24
CANDO          CLOUDY    27  27 100 W14       29.65S WCI  15
FORT TOTTEN      N/A     27  26  96 W8        29.95  WCI  19
ROLLA          CLOUDY    27  27 100 W12       29.61S WCI  16
RUGBY            N/A     25  25 100 W14       29.65R WCI  13
 ***** THE ABOVE OBSERVATIONS ARE NON NWS ARE NOT QUALITY
        CONTROLLED AND MAY MIS-REPORT RAIN FOR SNOW...
$$

 *****  OTHER OBSERVATIONS SOUTHEAST NORTH DAKOTA *****

CITY           SKY/WX    TMP DP  RH WIND       PRES   REMARKS
COOPERSTOWN    MOCLDY    32  27  80 W18G26    29.65S WCI  20
VALLEY CITY    CLOUDY    32  32 100 NW14      29.68F WCI  22
OAKES          NOT AVBL
GWINNER        CLOUDY    37  32  81 W10       29.70S
SHEYENNE NWR     N/A     36  30  79 W10       29.95S
BUFFALO        NOT AVBL
WYNDMERE       NOT AVBL
 ***** THE ABOVE OBSERVATIONS ARE NON NWS ARE NOT QUALITY
       CONTROLLED AND MAY MIS-REPORT RAIN FOR SNOW...
$$

  *****  WEATHER ACROSS NORTHERN MINNESOTA  *****

CITY           SKY/WX    TMP DP  RH WIND       PRES   REMARKS
FLAG ISLAND    CLOUDY    30  30 100 SE16      29.60F WCI  19
WARROAD        CLOUDY    34  28  80 S9        29.61S
ROSEAU         CLOUDY    34  28  80 S10       29.60S HAZE
HALLOCK        CLOUDY    34  30  86 W9        29.60S
THF RVR FALLS  FLURRIES  29  27  92 W13       29.63F WCI  19
HALSTAD          N/A     33  28  85 W8          N/A
FOSSTON        CLOUDY    30  28  93 W12       29.64S FOG     WCI  21
BAUDETTE       CLOUDY    32  30  92 SE9       29.62F WCI  24
WASKISH        LGT SNOW  34  30  86 SE7       29.64F
CROOKSTON      CLOUDY    30  30 100 W9        29.65F WCI  22
$$
  *****  WEATHER ACROSS CENTRAL AND WEST MINNESOTA  *****

CITY           SKY/WX    TMP DP  RH WIND       PRES   REMARKS
BEMIDJI        LGT SNOW  32  31  98 S7        29.63S
PARK RAPIDS    LGT SNOW  33  29  85 SW7       29.64S FOG
WADENA         MIX PCPN  32  30  93 W12       29.66S WCI  23
DETROIT LAKES  MIX PCPN  32  32 100 W13       29.67R WCI  22
MOORHEAD       PTSUNNY   34  28  80 W10       29.69F
FERGUS FALLS   PTSUNNY   34  30  86 NW14      29.73F WCI  24
ELBOW LAKE     CLOUDY    33  32  96 NW13      29.71S WCI  24
MORRIS MN      MOSUNNY   36  32  87 W15       29.71S
STAPLES        CLOUDY    32  32 100 SW9       29.67S WCI  24
WHEATON        NOT AVBL
$$
  *****  WEATHER ELSEWHERE ACROSS MINNESOTA  *****

CITY           SKY/WX    TMP DP  RH WIND       PRES   REMARKS
DULUTH         LGT SNOW  31  29  92 S9        29.71F FOG     WCI  23
INTRNTL FALLS  CLOUDY    32  29  88 SE7       29.67F FOG
ELY            FLURRIES  30  28  93 SE8       29.71F WCI  23
CLOQUET        LGT SNOW  30  28  93 SE5       29.71F
BRAINERD       LGT SNOW  32  32 100 S7        29.68S FOG
HIBBING        LGT SNOW  30  28  92 SE8       29.69F FOG     WCI  22
ALEXANDRIA     CLOUDY    34  32  92 W13       29.70S WCI  25
SAINT CLOUD    LGT SNOW  34  33  96 SW8       29.71F FOG
MINNEAPOLIS    CLOUDY    37  32  82 SW8       29.76F
$$

  *****  WEATHER ACROSS SOUTH DAKOTA  *****

CITY           SKY/WX    TMP DP  RH WIND       PRES   REMARKS
SIOUX FALLS    MOSUNNY   44  33  65 W9        29.80F
BROOKINGS      SUNNY     39  32  76 W16       29.76S
WATERTOWN      SUNNY     36  30  79 W16       29.74S
HURON          SUNNY     42  31  64 W13       29.79S
SISSETON         N/A     38  31  76 W9        29.72S
ABERDEEN       SUNNY     40  29  64 W10       29.75S
MITCHELL       SUNNY     44  32  62 W15       29.81F
PIERRE         SUNNY     39  26  59 SW8       29.77F
MOBRIDGE       SUNNY     38  24  57 W6        29.72F
RAPID CITY     SUNNY     48  11  22 SW3       29.70F
$$

  *****  SOME WEATHER IN NEARBY STATES *****

CITY           SKY/WX    TMP DP  RH WIND       PRES   REMARKS
GLASGOW MT     CLOUDY    41  24  51 SW8       29.55F
GREAT FALLS MT SUNNY     41  24  51 SW24G36   29.48F
CHEYENNE WY    CLOUDY    46  15  28 W21G31    29.81F
SCOTTSBLUFF NE SUNNY     50  16  25 W20G26    29.79F
OMAHA NE       SUNNY     42  33  70 SW7       29.90F
DES MOINES IA  CLOUDY    38  34  85 W10       29.90R FOG
DAVENPORT IA   LGT SNOW  32  30  92 SE7       29.91F FOG
CHICAGO IL     HVY SNOW  32  31  96 SE3       29.91F VSB 1/4
EAU CLAIRE WI  CLOUDY    32  31  96 S12       29.80F FOG     WCI  23
LA CROSSE WI   CLOUDY    34  32  92 S12       29.85F
$$

  *****  SOME NATIONAL WEATHER *****

CITY           SKY/WX    TMP DP  RH WIND       PRES   REMARKS
LA GUARDIA NY  MOCLDY    46  22  38 NW7       30.19S
RALEIGH NC     LGT RAIN  46  37  71 S3        30.21F
ATLANTA GA     DRIZZLE   45  45 100 E15G21    30.04F FOG
NEW ORLEANS LA CLOUDY    63  63 100 N9        29.89S FOG
OKLAHOMA CITY  MOSUNNY   53  39  59 NW9       30.05S
ALBUQUERQUE NM SUNNY     45  12  26 CALM      30.10F
SALT LAKE CITY PTSUNNY   41  21  44 E9        30.00F
LOS ANGELES CA MOSUNNY   64  48  56 W10       30.02F
BOISE ID       LGT RAIN  44  35  70 E8        29.84F
SEATTLE WA     PTSUNNY   42  37  82 VRB3      30.06S
$$

*** WEATHER ACROSS MANITOBA...SASKATCHEWAN AND ONTARIO ***
                ***ONTARIO***

CITY           SKY/WX    TMP DP  RH WIND       PRES   REMARKS
GERALDTON      LGT SNOW  25  23  93 E8        29.90F WCI  16
THUNDER BAY    LGT SNOW  30  30 100 E8        29.84F WCI  23
SIOUX LOOKOUT  FLURRIES  30  27  86 SE8       29.72F WCI  23
TORONTO        MOCLDY    36  28  75 E9        30.13F
BIG TROUT LK   CLOUDY    25  23  93 S13       29.82F WCI  13
PICKLE LAKE    CLOUDY    27  23  86 SE12      29.78F WCI  16
DRYDEN         FLURRIES  30  28  93 SE12G17   29.67F WCI  21
KENORA         LGT SNOW  28  28 100 SE8       29.62F VSB 3/4 WCI  20
$$
                *** MANITOBA***

CITY           SKY/WX    TMP DP  RH WIND       PRES   REMARKS
BRANDON        FLURRIES  28  25  86 W16       29.61S WCI  17
DAUPHIN        CLOUDY    30  27  86 W9        29.61S WCI  22
ISLAND LAKE    FLURRIES  25  23  93 E7        29.71F WCI  17
PILOT MOUND      N/A     28  27  93 NW12        N/A  WCI  18
THE PAS        CLOUDY    28  23  80 SW6       29.59S WCI  22
THOMPSON       FLURRIES  27  25  93 SE3       29.64F
WINNIPEG       LGT SNOW  32  32 100 S3        29.56F FOG
LYNN LAKE      FLURRIES  23  21  93 SE3       29.56F
CHURCHILL      FLURRIES  14  12  92 S9        29.82F WCI   2
GILLAM         LGT SNOW  23  21  93 SE7       29.75F WCI  15
$$
                ***SASKATCHEWAN***

CITY           SKY/WX    TMP DP  RH WIND       PRES   REMARKS
ESTEVAN        MOSUNNY   25  18  74 S3        29.61F
KINDERSLEY     PTSUNNY   25  21  86 NW2       29.58S
LLOYDMINSTER   MOSUNNY   28  16  59 W17       29.53F WCI  16
PRINCE ALBERT  PTCLDY    28  19  69 CALM      29.55F
REGINA         PTSUNNY   23  19  86 SE7       29.58F WCI  15
YORKTON        CLOUDY    23  23 100 W3        29.60F   C1F1C2F2C3F3C4F4C5F5C6F6C7F7C8F8C9F9CaFaCbFbCcFcCdFdCe!



USA.gov is the U.S. government's official web portal to all federal, state and local government web resources and services.